Weather History for Hurlburt Field, FL

Change the Weather History Date:

Sunday, November 25, 2012

  Actual Average Record
Temperature  
Mean Temperature 44 °F -  
Max Temperature 59 °F 66 °F 78 °F (2001)
Min Temperature 30 °F 47 °F 30 °F (2012)
Degree Days  
Heating Degree Days 20    
Moisture  
Dew Point 34 °F    
Average Humidity 57    
Maximum Humidity 95    
Minimum Humidity 35    
Precipitation  
Precipitation 0.00 in - - ()
Sea Level Pressure  
Sea Level Pressure 30.18 in    
Wind  
Wind Speed 4 mph (SSE)    
Max Wind Speed 9 mph    
Max Gust Speed -    
Visibility 10 miles    
Events Rain    
Averages and records for this station are not official NWS values.
T = Trace of Precipitation, MM = Missing Value Source: NWS Daily Summary

Daily Weather History Graph

Daily Weather History Graph

Search for Another Location

Airport:

Trip Planner

Search our weather history database for the weather conditions in past years. The results will help you decide how hot, cold, wet, or windy it might be!

Date:

Astronomy

Nov. 25, 2012 Rise Set
Actual Time 6:21 AM CST 4:46 PM CST
Civil Twilight 5:55 AM CST 5:12 PM CST
Nautical Twilight 5:26 AM CST 5:41 PM CST
Astronomical Twilight 4:57 AM CST 6:10 PM CST
Moon 2:56 PM CST (11/25) 3:42 AM CST (11/25)
Length of Visible Light 11h 16m
Length of Day
10h 24m
Waxing Gibbous, 93% of the Moon is Illuminated
Nov 25
Waxing Gibbous
Nov 28
Full
Dec 6
Last Quarter
Dec 13
New
Dec 19
First Quarter

Hourly Weather History & Observations

Time (CST) Temp. Windchill Dew Point Humidity Pressure Visibility Wind Dir Wind Speed Gust Speed Precip Events Conditions
12:55 AM 41.0 °F - 29.1 °F 63% 30.16 in 10.0 mi Calm Calm - N/A   Clear
1:55 AM 35.2 °F 32.4 °F 31.5 °F 86% 30.16 in 10.0 mi North 3.5 mph - N/A   Clear
2:55 AM 33.8 °F 30.8 °F 30.2 °F 87% 30.17 in 10.0 mi North 3.5 mph - N/A   Clear
3:55 AM 31.3 °F 24.7 °F 28.9 °F 91% 30.17 in 10.0 mi North 6.9 mph - N/A   Clear
4:55 AM 31.3 °F 26.6 °F 28.6 °F 90% 30.17 in 10.0 mi North 4.6 mph - N/A   Clear
5:55 AM 30.9 °F 25.2 °F 27.7 °F 88% 30.19 in 10.0 mi North 5.8 mph - N/A   Clear
6:55 AM 32.9 °F 29.8 °F 29.1 °F 86% 30.22 in 10.0 mi North 3.5 mph - N/A   Clear
7:55 AM 42.6 °F 40.9 °F 31.6 °F 65% 30.24 in 10.0 mi ENE 3.5 mph - N/A   Clear
8:55 AM 50.7 °F - 32.4 °F 49% 30.25 in 10.0 mi East 5.8 mph - N/A   Clear
9:55 AM 54.7 °F - 30.0 °F 39% 30.25 in 10.0 mi East 5.8 mph - N/A   Clear
9:58 AM 55.4 °F - 30.2 °F 38% 30.25 in 10.0 mi East 5.8 mph - N/A   Light Drizzle
10:08 AM 55.4 °F - 30.2 °F 38% 30.24 in 10.0 mi East 4.6 mph - N/A   Clear
10:42 AM 55.4 °F - 28.4 °F 36% 30.23 in 10.0 mi Calm Calm - N/A   Light Drizzle
10:55 AM 56.8 °F - 29.7 °F 35% 30.22 in 10.0 mi Variable 3.5 mph - 0.00 in   Light Drizzle
11:00 AM 57.2 °F - 30.2 °F 36% 30.22 in 10.0 mi SE 5.8 mph - N/A   Clear
11:05 AM 57.2 °F - 33.8 °F 41% 30.21 in 10.0 mi Variable 4.6 mph - N/A   Light Drizzle
11:11 AM 57.2 °F - 33.8 °F 41% 30.21 in 10.0 mi SSE 5.8 mph - N/A   Clear
11:14 AM 57.2 °F - 33.8 °F 41% 30.21 in 10.0 mi SSE 5.8 mph - N/A   Light Drizzle
11:24 AM 57.2 °F - 33.8 °F 41% 30.20 in 10.0 mi SSE 8.1 mph - N/A   Clear
11:55 AM 57.7 °F - 34.2 °F 41% 30.19 in 10.0 mi South 9.2 mph - 0.00 in   Clear
12:18 PM 57.2 °F - 33.8 °F 41% 30.18 in 10.0 mi SSE 8.1 mph - N/A Rain Light Rain
12:20 PM 57.2 °F - 33.8 °F 41% 30.18 in 10.0 mi SSE 9.2 mph - N/A   Clear
12:55 PM 57.6 °F - 34.2 °F 41% 30.17 in 10.0 mi South 8.1 mph - 0.00 in   Clear
1:02 PM 59.0 °F - 35.6 °F 42% 30.17 in 10.0 mi South 8.1 mph - N/A   Light Drizzle
1:11 PM 57.2 °F - 33.8 °F 41% 30.16 in 10.0 mi South 9.2 mph - N/A   Clear
1:54 PM 59.0 °F - 37.4 °F 45% 30.15 in 10.0 mi South 5.8 mph - N/A Rain Light Rain
1:55 PM 58.3 °F - 36.9 °F 45% 30.15 in 10.0 mi South 4.6 mph - 0.00 in Rain Light Rain
1:59 PM 59.0 °F - 37.4 °F 45% 30.15 in 10.0 mi Variable 4.6 mph - N/A   Clear
2:29 PM 59.0 °F - 37.4 °F 45% 30.15 in 10.0 mi SSW 5.8 mph - N/A Rain Light Rain
2:36 PM 59.0 °F - 37.4 °F 45% 30.15 in 10.0 mi South 5.8 mph - N/A   Clear
2:55 PM 59.0 °F - 38.3 °F 46% 30.14 in 10.0 mi SW 5.8 mph - 0.00 in   Clear
3:53 PM 57.2 °F - 37.4 °F 48% 30.14 in 10.0 mi SW 5.8 mph - N/A   Light Drizzle
3:55 PM 58.1 °F - 36.9 °F 45% 30.14 in 10.0 mi WSW 4.6 mph - 0.00 in   Light Drizzle
3:57 PM 57.2 °F - 37.4 °F 48% 30.14 in 10.0 mi SW 4.6 mph - N/A   Clear
4:00 PM 57.2 °F - 37.4 °F 48% 30.14 in 10.0 mi WSW 4.6 mph - N/A Rain Light Rain
4:10 PM 57.2 °F - 37.4 °F 48% 30.14 in 10.0 mi SSW 4.6 mph - N/A   Clear
4:55 PM 55.4 °F - 38.8 °F 54% 30.14 in 10.0 mi Calm Calm - 0.00 in   Clear
5:55 PM 50.0 °F - 40.3 °F 69% 30.14 in 10.0 mi Calm Calm - N/A   Clear
6:55 PM 44.1 °F - 39.2 °F 83% 30.16 in 10.0 mi Calm Calm - N/A   Clear
7:55 PM 40.1 °F 36.9 °F 37.8 °F 91% 30.17 in 10.0 mi North 4.6 mph - N/A   Clear
8:55 PM 38.3 °F 34.8 °F 36.5 °F 93% 30.17 in 10.0 mi North 4.6 mph - N/A   Clear
9:55 PM 37.4 °F 33.8 °F 36.0 °F 95% 30.16 in 10.0 mi North 4.6 mph - N/A   Clear
10:55 PM 36.7 °F 32.0 °F 35.4 °F 95% 30.16 in 10.0 mi North 5.8 mph - N/A   Clear
11:55 PM 35.8 °F 30.9 °F 34.5 °F 95% 30.14 in 10.0 mi North 5.8 mph - N/A   Clear